Edwards AFB North Base, CA

5:23 AM PDT on August 19, 2019 (GMT -0700)
Edwards AFB North Base

Weather History for K9L2 - May, 2019

Change the Weather History Date:

Friday, May 31, 2019

  Actual Average (KEDW) Record (KEDW)
Temperature  
Mean Temperature 70 °F -  
Max Temperature 88 °F 86 °F 104 °F (2001)
Min Temperature 53 °F 57 °F 42 °F (2011)
Cooling Degree Days 5    
Growing Degree Days 20 (Base 50)    
Moisture  
Dew Point 40 °F    
Average Humidity 35    
Maximum Humidity 57    
Minimum Humidity 14    
Precipitation  
Precipitation 0.00 in - - ()
Sea Level Pressure  
Sea Level Pressure 29.79 in    
Wind  
Wind Speed 6 mph ()    
Max Wind Speed 23 mph    
Max Gust Speed 26 mph    
Visibility 7.3 miles    
Events      
Averages and records for this station are not official NWS values.
T = Trace of Precipitation, MM = Missing Value Source: Averaged Metar Reports

Daily Weather History Graph

Daily Weather History Graph

Search for Another Location

Airport or City:

Astronomy

May. 31, 2019 Rise Set
Actual Time 5:39 AM PDT 7:59 PM PDT
Civil Twilight 5:09 AM PDT 8:28 PM PDT
Nautical Twilight 4:34 AM PDT 9:04 PM PDT
Astronomical Twilight 3:55 AM PDT 9:43 PM PDT
Moon 4:05 AM PDT (5/31) 5:21 PM PDT (5/31)
Length of Visible Light 15h 18m
Length of Day
14h 20m
Waning Crescent, 8% of the Moon is Illuminated
May 31
Waning Crescent
Jun 3
New
Jun 9
First Quarter
Jun 17
Full
Jun 25
Last Quarter

Hourly Weather History & Observations

Time (PDT) Temp. Dew Point Humidity Pressure Visibility Wind Dir Wind Speed Gust Speed Precip Events Conditions
12:58 AM 63.9 °F 42.4 °F 46% 29.83 in 8.0 mi South 9.2 mph - N/A   Clear
1:58 AM 60.4 °F 43.7 °F 54% 29.83 in 8.0 mi SSE 9.2 mph - N/A   Clear
2:58 AM 58.8 °F 39.4 °F 49% 29.82 in 9.0 mi South 6.9 mph - N/A   Clear
3:58 AM 57.7 °F 39.7 °F 51% 29.82 in 9.0 mi South 6.9 mph - N/A   Clear
4:58 AM 55.6 °F 38.8 °F 53% 29.82 in 9.0 mi Calm Calm - N/A   Clear
5:58 AM 53.4 °F 38.7 °F 57% 29.83 in 7.0 mi ESE 3.5 mph - N/A   Clear
6:58 AM 58.1 °F 39.7 °F 50% 29.85 in 7.0 mi North 3.5 mph - N/A   Clear
7:58 AM 63.0 °F 39.6 °F 42% 29.86 in 7.0 mi Calm Calm - N/A   Clear
8:28 AM 66.2 °F 41.0 °F 40% 29.86 in 6.0 mi Calm Calm - N/A   Haze
8:43 AM 66.2 °F 41.0 °F 40% 29.86 in 7.0 mi Calm Calm - N/A   Clear
8:58 AM 66.9 °F 42.3 °F 41% 29.86 in 6.0 mi South 3.5 mph - N/A   Haze
9:13 AM 68.0 °F 42.8 °F 40% 29.86 in 7.0 mi ESE 3.5 mph - N/A   Clear
9:58 AM 71.1 °F 44.6 °F 39% 29.85 in 6.0 mi Calm Calm - N/A   Haze
11:58 AM 79.7 °F 42.4 °F 27% 29.82 in 8.0 mi East 3.5 mph - N/A   Clear
12:58 PM 83.3 °F 38.3 °F 20% 29.80 in 8.0 mi South 6.9 mph - N/A   Partly Cloudy
1:58 PM 83.5 °F 35.2 °F 18% 29.77 in 8.0 mi SSW 3.5 mph - N/A   Partly Cloudy
2:58 PM 84.7 °F 33.6 °F 16% 29.74 in 7.0 mi ENE 4.6 mph - N/A   Clear
3:43 PM 86.0 °F 33.8 °F 15% 29.72 in 6.0 mi Calm Calm - N/A   Haze
3:58 PM 86.9 °F 32.9 °F 14% 29.72 in 7.0 mi WSW 5.8 mph - N/A   Clear
4:43 PM 87.8 °F 33.8 °F 15% 29.70 in 7.0 mi South 13.8 mph - N/A   Clear
4:58 PM 86.2 °F 35.4 °F 16% 29.70 in 8.0 mi SSW 13.8 mph 26.5 mph N/A   Clear
5:43 PM 84.2 °F 37.4 °F 19% 29.70 in 5.0 mi SW 17.3 mph 24.2 mph N/A   Haze
5:58 PM 83.7 °F 38.7 °F 20% 29.70 in 6.0 mi SW 23.0 mph - N/A   Haze
6:58 PM 80.1 °F 38.7 °F 23% 29.72 in 6.0 mi SW 19.6 mph 25.3 mph N/A   Haze
7:58 PM 76.8 °F 30.9 °F 19% 29.73 in 6.0 mi SW 13.8 mph - N/A   Haze
8:28 PM 75.2 °F 48.2 °F 38% 29.74 in 8.0 mi WSW 11.5 mph - N/A   Clear
8:58 PM 72.7 °F 49.8 °F 44% 29.77 in 7.0 mi WSW 6.9 mph - N/A   Clear
9:58 PM 69.1 °F 43.2 °F 39% 29.79 in 8.0 mi South 6.9 mph - N/A   Clear
10:58 PM 65.5 °F 44.6 °F 47% 29.78 in 9.0 mi SSW 9.2 mph - N/A   Clear
11:58 PM 63.3 °F 45.7 °F 53% 29.78 in 8.0 mi SSW 4.6 mph - N/A   Clear